Punta Gorda, FL

11:01 PM EST on November 21, 2017 (GMT -0500)
Charlotte County

Weather History for KPGD - August, 2013

Change the Weather History Date:

Thursday, August 1, 2013

  Actual Average Record
Temperature  
Mean Temperature 82 °F -  
Max Temperature 93 °F 88 °F 95 °F (2016)
Min Temperature 73 °F 71 °F 71 °F (2000)
Cooling Degree Days 17    
Growing Degree Days 32 (Base 50)    
Moisture  
Dew Point 73 °F    
Average Humidity 81    
Maximum Humidity 97    
Minimum Humidity 48    
Precipitation  
Precipitation 0.16 in - - ()
Sea Level Pressure  
Sea Level Pressure 30.02 in    
Wind  
Wind Speed 6 mph (East)    
Max Wind Speed 23 mph    
Max Gust Speed 44 mph    
Visibility 9 miles    
Events Rain , Thunderstorm    
Averages and records for this station are not official NWS values.
T = Trace of Precipitation, MM = Missing Value Source: NWS Daily Summary

Daily Weather History Graph

Daily Weather History Graph

Search for Another Location

Airport or City:

Trip Planner

Search our weather history database for the weather conditions in past years. The results will help you decide how hot, cold, wet, or windy it might be!

Date:

Astronomy

Aug. 01, 2013 Rise Set
Actual Time 6:52 AM EDT 8:15 PM EDT
Civil Twilight 6:27 AM EDT 8:40 PM EDT
Nautical Twilight 5:57 AM EDT 9:10 PM EDT
Astronomical Twilight 5:26 AM EDT 9:41 PM EDT
Moon 2:30 AM EDT (8/1) 4:19 PM EDT (8/1)
Length of Visible Light 14h 13m
Length of Day
13h 23m
Waning Crescent, 23% of the Moon is Illuminated
Aug 1
Waning Crescent
Aug 6
New
Aug 14
First Quarter
Aug 20
Full
Aug 28
Last Quarter

Hourly Weather History & Observations

Time (EDT) Temp. Heat Index Dew Point Humidity Pressure Visibility Wind Dir Wind Speed Gust Speed Precip Events Conditions
12:53 AM 75.9 °F - 73.9 °F 94% 30.08 in 10.0 mi ENE 4.6 mph - N/A   Scattered Clouds
1:53 AM 75.9 °F - 73.9 °F 94% 30.06 in 10.0 mi Calm Calm - N/A   Clear
2:53 AM 75.0 °F - 73.9 °F 96% 30.02 in 10.0 mi East 5.8 mph - N/A   Clear
3:53 AM 75.9 °F - 73.9 °F 94% 30.00 in 10.0 mi ENE 3.5 mph - N/A   Clear
4:53 AM 75.0 °F - 73.9 °F 96% 29.99 in 10.0 mi East 4.6 mph - N/A   Clear
5:53 AM 73.9 °F - 73.0 °F 97% 30.01 in 9.0 mi NE 3.5 mph - N/A   Clear
6:53 AM 73.0 °F - 72.0 °F 96% 30.03 in 7.0 mi ENE 3.5 mph - N/A   Clear
7:53 AM 75.9 °F - 73.9 °F 94% 30.04 in 10.0 mi ENE 4.6 mph - N/A   Clear
8:53 AM 80.1 °F 85.1 °F 75.0 °F 85% 30.05 in 10.0 mi East 4.6 mph - N/A   Clear
9:53 AM 84.0 °F 91.9 °F 75.0 °F 74% 30.06 in 10.0 mi SE 5.8 mph - N/A   Clear
10:53 AM 86.0 °F 93.8 °F 73.9 °F 67% 30.05 in 10.0 mi SSE 8.1 mph - N/A   Clear
11:53 AM 88.0 °F 95.6 °F 73.0 °F 61% 30.05 in 10.0 mi Variable 5.8 mph - N/A   Clear
12:53 PM 89.1 °F 95.0 °F 71.1 °F 55% 30.04 in 10.0 mi Calm Calm - N/A   Partly Cloudy
1:53 PM 91.0 °F 95.6 °F 69.1 °F 48% 30.02 in 10.0 mi ESE 8.1 mph - N/A   Clear
2:53 PM 91.9 °F 97.4 °F 70.0 °F 48% 30.00 in 10.0 mi SE 8.1 mph - N/A   Clear
3:53 PM 91.9 °F 97.4 °F 70.0 °F 48% 29.98 in 10.0 mi SE 8.1 mph - N/A   Scattered Clouds
4:53 PM 90.0 °F 97.9 °F 73.0 °F 57% 29.96 in 10.0 mi Variable 6.9 mph - N/A   Clear
5:53 PM 91.0 °F 101.6 °F 75.0 °F 59% 29.95 in 10.0 mi WNW 12.7 mph - N/A   Mostly Cloudy
6:34 PM 86.0 °F 93.4 °F 73.4 °F 66% 29.97 in 10.0 mi NW 6.9 mph - 0.03 in Thunderstorm Thunderstorm
6:53 PM 79.0 °F - 73.9 °F 84% 30.03 in 10.0 mi SE 19.6 mph 32.2 mph 0.03 in Thunderstorm Thunderstorm
6:58 PM 75.2 °F - 71.6 °F 89% 30.00 in 1.8 mi ESE 23.0 mph 36.8 mph 0.05 in Rain , Thunderstorm Light Thunderstorms and Rain
7:05 PM 73.4 °F - 69.8 °F 88% 30.02 in 1.2 mi SE 18.4 mph 43.7 mph 0.06 in Rain , Thunderstorm Thunderstorms and Rain
7:08 PM 73.4 °F - 69.8 °F 88% 30.01 in 2.0 mi SSE 15.0 mph 43.7 mph 0.06 in Rain , Thunderstorm Light Thunderstorms and Rain
7:16 PM 73.4 °F - 68.0 °F 83% 30.01 in 9.0 mi SE 13.8 mph 21.9 mph 0.10 in Rain , Thunderstorm Light Thunderstorms and Rain
7:44 PM 75.2 °F - 69.8 °F 83% 30.01 in 10.0 mi South 4.6 mph - 0.13 in Rain Light Rain
7:53 PM 75.9 °F - 71.1 °F 85% 30.02 in 10.0 mi Calm Calm - 0.13 in   Overcast
8:43 PM 78.8 °F - 73.4 °F 83% 30.00 in 10.0 mi Calm Calm - 0.00 in Thunderstorm Mostly Cloudy
8:53 PM 78.1 °F - 73.9 °F 87% 30.01 in 10.0 mi NE 8.1 mph - 0.00 in Rain Light Rain
9:07 PM 77.0 °F - 73.4 °F 89% 30.02 in 10.0 mi NE 12.7 mph - 0.00 in Thunderstorm Mostly Cloudy
9:22 PM 77.0 °F - 73.4 °F 89% 30.02 in 10.0 mi NE 9.2 mph - 0.00 in Rain Light Rain
9:37 PM 75.2 °F - 73.4 °F 94% 30.02 in 10.0 mi ENE 4.6 mph - 0.00 in Thunderstorm Scattered Clouds
9:53 PM 75.9 °F - 73.0 °F 91% 30.02 in 10.0 mi East 3.5 mph - 0.00 in   Partly Cloudy
10:53 PM 75.9 °F - 73.0 °F 91% 30.03 in 10.0 mi NE 3.5 mph - 0.00 in Rain Light Rain
11:53 PM 75.9 °F - 73.9 °F 94% 30.02 in 10.0 mi Variable 3.5 mph - 0.00 in Rain Light Rain